sat.trackr.live / text

‹ back to catalog

STARLINK-32584

NORAD 62179 · 2024-225S

PAYLOAD ACTIVE UNKNOWN

§ Identity

Operator
Country
US
Launch date
2024-11-30
Launch site
AFWTR
Launch vehicle
Mass (kg)
RCS (m²)

Purposes: comms

External: N2YO · Heavens-Above · Gunter

§ Orbital elements

Epoch: 2026-09-21T22:00:03.000096Z

Period
95.90 min
Inclination
70.0006°
Eccentricity
0.0004120
Mean motion
15.01601240 rev/d
Perigee alt
559.1 km
Apogee alt
564.8 km
Semi-major
6,940.1 km
B*
6.0235e-4
RAAN
29.6044°
Arg perigee
312.3014°
Mean anomaly
225.4665°
Rev number
572

§ Raw data

STARLINK-325841 62179U 24225S   26264.91670139  .00007740  00000+0  60235-3 0  99922 62179  70.0006  29.6044 0004120 312.3014 225.4665 15.01601240  5720

JSON: /api/v1/satellites/62179 · /tle

For live sub-satellite position, see the globe view (requires WebGL).

§ Visibility from observer

Set your observer location to see the next 7 days of passes ≥ 10°. The values pass through the URL so the page stays shareable.

No JS? Fill the form by hand. The geolocation button needs JavaScript.